Date String (YYYY-MM-DD hh:mm:ss) UTC,Instrument flags,absolute air pressure of the measurement (hPa),sample flow rate (lpm),inlet stack bypass flow (lpm),air temperature of the measurement (°C),ambient temperature measured by the external sensor (°C),aerosol sample conditioner tube jacket temperature (°C),OPC LED temperature (°C),internal box temperature (°C),relative humidity of the measurement (%),span deviation,mass concentration of particles derived from Lorenz-Mie calculation of OPC scattering (μg/m³),mass concentration of particles derived from Lorenz-Mie calculation of OPC scattering (μg/m³),mass concentration of particles derived from Lorenz-Mie calculation of OPC scattering (μg/m³)
DateTimeUTC,F1_M11,P_M11,Q1_M11,Q2_M11,T1_M11,T2_M11,T3_M11,T4_M11,T5_M11,U1_M11,ZSPAN_M11,X0_M11,X2_M11,X1_M11
2023-12-16 08:00:00,SystemResetWarning,0834.2,4.99,000.00,020.1,019.1,000.0,028.4,021.3,10.0,0000.0,0002.18,0001.23,0001.01
2023-12-16 08:01:00,SystemResetWarning,0834.2,4.99,000.00,020.1,019.1,000.0,028.4,021.3,10.0,0000.0,0002.08,0001.22,0001.00
2023-12-16 08:02:00,SystemResetWarning,0834.1,5.00,000.00,020.1,019.1,000.0,028.4,021.3,10.0,0000.0,0001.77,0001.20,0001.00
2023-12-16 08:03:00,SystemResetWarning,0834.0,5.00,000.00,020.1,019.1,000.0,028.4,021.3,10.2,0000.0,0001.69,0001.21,0000.99
2023-12-16 08:04:00,SystemResetWarning,0834.1,5.01,000.00,020.0,019.1,000.0,028.4,021.3,10.3,0000.0,0001.74,0001.20,0000.98
2023-12-16 08:05:00,SystemResetWarning,0834.0,5.00,000.00,020.1,019.1,000.0,028.4,021.4,10.2,0000.0,0001.90,0001.21,0000.97
2023-12-16 08:06:00,SystemResetWarning,0834.0,5.00,000.00,020.1,019.1,000.0,028.4,021.4,10.3,0000.0,0001.91,0001.22,0000.98
2023-12-16 08:07:00,SystemResetWarning,0834.0,5.00,000.00,020.1,019.1,000.0,028.4,021.4,10.3,0000.0,0001.90,0001.22,0000.99
2023-12-16 08:08:00,SystemResetWarning,0834.0,5.00,000.00,020.1,019.1,000.0,028.4,021.4,10.3,0000.0,0001.97,0001.26,0001.00
2023-12-16 08:09:00,SystemResetWarning,0834.0,5.00,000.00,020.1,019.1,000.0,028.4,021.4,10.3,0000.0,0002.00,0001.26,0001.00
2023-12-16 08:10:00,SystemResetWarning,0834.0,5.00,000.00,020.1,019.1,000.0,028.4,021.3,10.3,0000.0,0002.00,0001.27,0001.01
2023-12-16 08:11:00,SystemResetWarning,0834.0,5.00,000.00,020.0,019.1,000.0,028.4,021.3,10.4,0000.0,0001.96,0001.25,0001.01
2023-12-16 08:12:00,SystemResetWarning,0833.9,5.00,000.00,020.0,019.1,000.0,028.4,021.3,10.4,0000.0,0002.07,0001.28,0001.02
2023-12-16 08:13:00,SystemResetWarning,0833.9,5.00,000.00,020.0,019.1,000.0,028.4,021.3,10.4,0000.0,0002.65,0001.30,0001.04
2023-12-16 08:14:00,SystemResetWarning,0834.0,5.00,000.00,020.0,019.1,000.0,028.4,021.3,10.4,0000.0,0003.03,0001.33,0001.06
2023-12-16 08:15:00,SystemResetWarning,0833.9,5.00,000.00,020.0,019.1,000.0,028.4,021.3,10.4,0000.0,0003.10,0001.35,0001.07
2023-12-16 08:16:00,SystemResetWarning,0833.9,5.00,000.00,020.0,019.1,000.0,028.4,021.3,10.4,0000.0,0003.01,0001.37,0001.09
2023-12-16 08:17:00,SystemResetWarning,0834.0,5.00,000.00,020.0,019.1,000.0,028.4,021.3,10.4,0000.0,0003.04,0001.39,0001.08
2023-12-16 08:18:00,SystemResetWarning,0834.0,5.00,000.00,020.0,019.1,000.0,028.4,021.3,10.4,0000.0,0003.03,0001.38,0001.09
2023-12-16 08:19:00,SystemResetWarning,0834.0,5.00,000.00,020.0,019.1,000.0,028.4,021.3,10.5,0000.0,0002.99,0001.38,0001.10
2023-12-16 08:20:00,SystemResetWarning,0834.0,5.00,000.00,020.0,019.1,000.0,028.3,021.3,10.5,0000.0,0003.08,0001.41,0001.11
2023-12-16 08:21:00,SystemResetWarning,0833.9,5.00,000.00,020.0,019.1,000.0,028.4,021.3,10.5,0000.0,0003.15,0001.42,0001.12
2023-12-16 08:22:00,SystemResetWarning,0833.9,5.00,000.00,020.0,019.1,000.0,028.3,021.3,10.5,0000.0,0003.23,0001.46,0001.14
2023-12-16 08:23:00,SystemResetWarning,0834.0,5.00,000.00,020.0,019.1,000.0,028.3,021.3,10.5,0000.0,0003.20,0001.46,0001.15
2023-12-16 08:24:00,SystemResetWarning,0833.8,5.00,000.00,020.0,019.1,000.0,028.3,021.3,10.4,0000.0,0003.04,0001.49,0001.17
2023-12-16 08:25:00,SystemResetWarning,0833.7,5.00,000.00,020.0,019.0,000.0,028.3,021.3,10.4,0000.0,0002.34,0001.46,0001.17
2023-12-16 08:26:00,SystemResetWarning,0833.8,5.00,000.00,020.0,019.0,000.0,028.3,021.2,10.4,0000.0,0002.25,0001.46,0001.18
2023-12-16 08:27:00,SystemResetWarning,0833.8,5.00,000.00,020.0,019.0,000.0,028.3,021.2,10.3,0000.0,0002.24,0001.48,0001.19
2023-12-16 08:28:00,SystemResetWarning,0833.8,5.00,000.00,020.0,019.0,000.0,028.3,021.3,10.3,0000.0,0002.27,0001.48,0001.20
2023-12-16 08:29:00,SystemResetWarning,0833.8,5.00,000.00,020.0,019.0,000.0,028.3,021.2,10.4,0000.0,0002.32,0001.50,0001.20
2023-12-16 08:30:00,SystemResetWarning,0833.7,5.00,000.00,019.9,019.0,000.0,028.3,021.2,10.4,0000.0,0002.61,0001.52,0001.21
2023-12-16 08:31:00,SystemResetWarning,0833.7,5.00,000.00,019.9,019.0,000.0,028.3,021.2,10.4,0000.0,0004.95,0001.52,0001.19
2023-12-16 08:32:00,SystemResetWarning,0833.7,5.00,000.00,019.9,019.0,000.0,028.3,021.2,10.4,0000.0,0005.46,0001.48,0001.19
2023-12-16 08:33:00,SystemResetWarning,0833.6,5.00,000.00,019.9,019.0,000.0,028.3,021.2,10.3,0000.0,0005.37,0001.46,0001.18
2023-12-16 08:34:00,SystemResetWarning,0833.7,5.00,000.00,019.9,019.0,000.0,028.3,021.2,10.3,0000.0,0005.29,0001.44,0001.18
2023-12-16 08:35:00,SystemResetWarning,0833.7,5.00,000.00,019.9,019.0,000.0,028.3,021.2,10.2,0000.0,0005.19,0001.42,0001.18
2023-12-16 08:36:00,SystemResetWarning,0833.7,5.00,000.00,019.9,018.9,000.0,028.3,021.2,10.2,0000.0,0005.22,0001.43,0001.17
2023-12-16 08:37:00,SystemResetWarning,0833.7,5.00,000.00,019.9,018.9,000.0,028.3,021.2,10.1,0000.0,0005.29,0001.44,0001.15
2023-12-16 08:38:00,SystemResetWarning,0833.7,5.00,000.00,019.9,018.9,000.0,028.3,021.2,10.0,0000.0,0005.22,0001.41,0001.13
2023-12-16 08:39:00,SystemResetWarning,0833.7,5.00,000.00,019.9,018.9,000.0,028.3,021.2,10.0,0000.0,0005.82,0001.43,0001.12
2023-12-16 08:40:00,SystemResetWarning,0833.7,5.00,000.00,019.9,018.9,000.0,028.3,021.2,9.6,0000.0,0005.98,0001.42,0001.11
2023-12-16 08:41:00,SystemResetWarning,0833.7,5.01,000.00,019.9,018.9,000.0,028.2,021.1,9.4,0000.0,0005.72,0001.40,0001.09
2023-12-16 08:42:00,SystemResetWarning,0833.7,5.00,000.00,019.9,018.9,000.0,028.2,021.1,9.5,0000.0,0003.74,0001.39,0001.09
2023-12-16 08:43:00,SystemResetWarning,0833.7,5.01,000.00,019.9,018.9,000.0,028.2,021.1,9.5,0000.0,0002.68,0001.36,0001.07
2023-12-16 08:44:00,SystemResetWarning,0833.7,5.00,000.00,019.9,018.9,000.0,028.2,021.2,9.7,0000.0,0002.62,0001.32,0001.04
2023-12-16 08:45:00,SystemResetWarning,0833.6,5.01,000.00,019.9,018.9,000.0,028.2,021.1,9.6,0000.0,0002.65,0001.30,0001.00
2023-12-16 08:46:00,SystemResetWarning,0833.6,5.00,000.00,019.9,018.9,000.0,028.2,021.1,9.6,0000.0,0002.70,0001.28,0000.97
2023-12-16 08:47:00,SystemResetWarning,0833.6,5.00,000.00,019.9,018.9,000.0,028.2,021.1,9.6,0000.0,0002.66,0001.24,0000.94
2023-12-16 08:48:00,SystemResetWarning,0833.5,5.00,000.00,019.9,018.9,000.0,028.2,021.1,9.6,0000.0,0002.56,0001.19,0000.93
2023-12-16 08:49:00,SystemResetWarning,0833.5,5.00,000.00,019.9,018.9,000.0,028.2,021.2,9.6,0000.0,0002.55,0001.17,0000.91
2023-12-16 08:50:00,SystemResetWarning,0833.5,5.00,000.00,019.9,018.9,000.0,028.2,021.2,10.2,0000.0,0002.13,0001.16,0000.91
2023-12-16 08:51:00,SystemResetWarning,0833.4,5.00,000.00,019.9,019.0,000.0,028.2,021.2,9.9,0000.0,0001.68,0001.10,0000.89
2023-12-16 08:52:00,SystemResetWarning,0833.4,5.00,000.00,019.9,019.0,000.0,028.2,021.2,10.0,0000.0,0001.65,0001.09,0000.87
2023-12-16 08:53:00,SystemResetWarning,0833.4,5.00,000.00,019.9,019.0,000.0,028.2,021.2,9.9,0000.0,0001.57,0001.06,0000.85
2023-12-16 08:54:00,SystemResetWarning,0833.4,5.00,000.00,019.9,019.0,000.0,028.2,021.2,9.7,0000.0,0001.55,0001.03,0000.83
2023-12-16 08:55:00,SystemResetWarning,0833.4,5.00,000.00,019.9,019.0,000.0,028.2,021.2,9.8,0000.0,0001.54,0001.03,0000.83
2023-12-16 08:56:00,SystemResetWarning,0833.4,5.00,000.00,019.9,019.0,000.0,028.2,021.2,9.9,0000.0,0001.55,0001.05,0000.84
2023-12-16 08:57:00,SystemResetWarning,0833.4,5.00,000.00,019.9,019.0,000.0,028.2,021.2,10.0,0000.0,0001.49,0001.06,0000.84
2023-12-16 08:58:00,SystemResetWarning,0833.4,5.00,000.00,019.9,019.0,000.0,028.2,021.2,10.0,0000.0,0001.44,0001.04,0000.84
2023-12-16 08:59:00,SystemResetWarning,0833.4,5.00,000.00,019.9,019.0,000.0,028.2,021.2,10.0,0000.0,0001.44,0001.05,0000.85
